KINEIS-2C

Last updated on Wed Oct 22 2025 00:02:42 GMT+0000 (Coordinated Universal Time)

1 62929U 25028B 25294.61029012 .00002782 00000+0 44780-3 0 9992 2 62929 98.0177 346.6035 0002552 72.5185 287.6301 14.72316245 37508
UTC large
Height (km)
Speed (km/s)
/
Latitude / Longitude
Inclination (degrees)
Orbital Period (minutes)
Azimuth
Elevation
Range (km)
Doppler Factor

Next 0 passes for location: London (51.5072 / 0.1276)

Sorry there are no passes over London.